Helicity
-27 -14 -9 -10 -7 8 11 14 18 25 28 20 11 6 10 21 25 42 58 34 19 2 19 22 29 21 58 99 151 143 223 202 166 260 170 162 180 177 133 98 127 117 113 62 118
-29 -13 -12 -4 -0 8 3 7 16 28 26 26 19 10 -8 22 30 48 48 17 12 19 22 21 23 33 75 94 155 131 191 194 233 186 235 103 219 171 150 97 116 100 118 64 146
-13 -8 -7 -2 4 10 4 6 13 30 37 37 29 24 17 44 -1 52 14 -4 17 24 28 33 32 32 58 86 105 91 170 147 173 255 283 236 236 224 195 125 101 68 73 59 162
-4 -6 -5 -5 2 -0 1 9 23 26 55 63 65 71 72 56 20 71 9 -3 26 38 14 21 38 43 63 70 72 98 80 92 148 190 232 186 278 235 182 152 133 92 39 63 163
-8 -3 -13 -9 -5 -5 -2 4 23 37 55 72 69 80 94 70 39 108 3 8 8 29 21 25 27 45 55 75 58 64 43 37 112 149 214 151 162 216 167 124 109 69 61 51 147
2 -11 -17 -12 -5 -5 -1 5 25 49 60 71 78 73 96 39 134 103 27 -0 -6 -7 8 34 33 62 54 73 45 41 69 74 58 144 166 161 123 158 148 118 80 16 64 100 70
4 3 3 -11 -17 -3 3 14 23 46 67 71 97 114 107 67 108 124 31 -1 -2 -0 8 10 14 40 30 57 57 42 -23 81 47 92 151 129 134 108 168 70 66 18 29 84 95
-0 8 5 6 -9 -12 -13 3 18 45 71 94 137 114 101 131 117 125 20 2 3 6 -2 11 12 -1 42 57 57 55 26 -3 15 30 92 121 197 49 106 77 47 54 50 88 104
16 6 9 6 3 -6 -15 -5 8 43 94 126 124 94 105 138 107 115 65 46 30 24 12 20 -16 4 -6 -5 57 53 44 31 72 15 92 95 159 87 118 128 45 68 73 107 135
19 7 16 15 9 8 11 7 77 93 95 92 85 109 128 85 94 67 75 54 43 49 52 21 -7 -1 7 14 36 45 51 39 48 47 15 97 138 164 130 156 123 53 97 110 154
22 7 11 22 12 12 30 87 108 107 90 134 123 120 80 80 89 85 76 93 71 76 81 35 18 12 -10 43 87 27 -1 74 63 60 58 67 109 153 133 167 173 90 91 145 169
27 9 -4 18 19 22 52 100 100 81 57 97 92 79 74 84 72 97 81 70 59 66 77 46 43 -4 -0 28 18 8 18 48 91 76 57 54 91 126 114 141 187 122 160 214 240
44 18 21 12 23 74 81 88 56 55 55 74 84 71 64 82 58 87 110 80 89 99 105 28 22 25 -4 2 -0 14 2 42 85 41 88 47 80 133 67 93 125 132 159 178 260
50 29 24 28 61 71 96 66 49 39 66 83 90 65 63 51 59 73 113 80 94 70 67 37 -8 6 39 18 17 -6 16 27 108 39 69 113 119 106 97 85 123 121 81 177 204
37 25 15 45 56 64 85 82 55 39 69 67 74 57 44 65 29 74 71 101 89 80 65 30 39 62 56 -23 1 3 38 -10 36 29 65 65 153 97 93 111 82 96 110 113 162
35 15 21 72 72 61 52 82 51 70 64 73 54 59 56 67 55 41 77 86 65 82 81 63 45 49 24 -22 -29 32 15 -16 20 28 47 60 110 79 91 98 62 71 56 27 69
51 -0 54 59 67 64 54 63 66 44 88 79 73 46 47 62 54 37 61 84 84 105 106 98 81 40 28 11 9 16 -21 -2 37 34 50 57 88 111 36 102 122 75 67 51 79
37 19 68 69 44 54 66 58 80 72 64 89 77 55 69 42 66 40 53 64 63 75 93 110 101 86 36 19 -7 22 10 54 45 33 38 38 60 65 36 74 121 150 133 101 91
4 25 55 68 58 50 58 68 73 81 76 64 67 60 74 66 58 36 54 46 43 43 69 86 79 42 4 -17 -10 -4 -14 20 22 20 38 35 37 37 46 56 81 88 107 120 111
24 23 52 59 58 60 65 65 83 92 91 64 58 63 63 63 60 48 43 38 28 29 23 52 60 44 20 3 -10 -4 -13 13 -2 15 39 22 42 50 53 53 64 69 95 134 149
29 31 74 52 65 75 69 65 69 80 95 74 69 61 59 53 56 63 54 35 27 18 27 21 36 52 35 61 60 47 7 -3 2 12 32 43 22 21 68 92 67 71 94 145 193
77 65 110 76 62 83 66 68 62 76 95 78 70 65 57 57 53 46 53 50 55 29 26 20 5 33 65 16 8 19 29 69 68 42 34 42 13 30 52 69 69 106 156 179 187
113 102 116 122 85 85 98 88 87 83 65 73 68 73 74 52 39 55 41 41 51 37 32 24 26 32 37 27 34 55 50 53 46 42 57 42 6 19 65 49 87 90 127 160 175
116 143 148 142 187 154 120 96 98 71 72 81 80 108 107 67 60 46 40 42 41 28 36 27 33 37 35 20 21 42 41 59 61 47 38 49 13 39 45 35 95 113 126 126 113
150 227 270 191 143 144 163 130 144 103 93 89 74 86 94 71 74 69 46 50 56 56 43 24 27 23 24 38 49 60 54 71 73 37 33 -3 19 58 38 53 95 122 138 142 164
262 257 267 252 246 210 186 146 124 139 148 104 118 102 92 109 87 42 60 57 52 67 57 58 54 42 -25 14 29 36 69 90 56 30 35 16 6 51 81 80 82 91 92 106 144
231 236 235 276 291 265 234 209 111 108 94 143 92 121 103 65 113 109 85 92 87 75 74 77 68 65 50 63 -10 24 36 117 86 40 39 36 -2 170 129 91 90 105 102 130 152
Wind_Speed
51 49 50 52 52 52 51 52 52 48 44 42 46 52 55 54 50 43 45 47 47 46 41 38 31 34 35 49 53 56 78 92 88 80 77 62 66 58 50 46 45 43 39 30 19
45 39 45 46 47 47 47 48 48 43 41 40 47 54 60 52 48 41 39 46 46 43 38 35 30 26 41 48 53 66 85 81 74 66 72 59 69 63 59 54 52 48 37 22 24
34 31 33 38 38 39 42 44 43 38 35 36 43 49 56 48 45 43 43 45 47 36 34 36 30 18 40 40 52 65 82 71 66 66 62 70 65 62 68 65 56 55 39 30 31
28 22 25 29 31 32 36 39 39 36 32 31 37 35 35 46 55 48 38 38 37 33 33 30 28 25 39 48 43 58 71 71 61 59 66 63 69 70 69 61 51 50 43 35 35
18 17 19 22 24 26 30 31 34 33 28 29 34 35 39 46 52 44 37 35 33 32 33 32 29 34 47 53 44 59 55 66 69 60 62 66 71 80 74 63 51 48 46 42 37
31 19 17 16 18 20 24 24 26 30 28 26 31 35 38 41 43 43 33 33 36 32 29 29 33 38 42 48 52 44 60 62 72 68 62 67 71 69 81 61 56 50 49 48 43
47 5 15 13 12 14 18 20 20 22 26 24 29 35 35 35 39 40 35 33 30 31 29 29 34 34 39 38 39 41 41 56 73 71 66 60 78 82 71 68 65 58 53 48 52
49 17 6 11 10 10 14 15 16 17 25 27 32 34 32 34 35 42 35 33 30 30 32 26 27 20 37 36 37 37 50 55 54 71 66 60 84 71 70 73 72 62 57 53 51
49 29 7 4 9 7 8 11 16 20 30 32 33 31 33 36 35 41 41 39 34 32 31 31 26 22 21 17 14 21 43 57 54 63 66 71 72 62 64 72 77 71 62 57 51
50 35 3 7 11 9 6 13 28 30 32 31 32 38 32 33 34 35 41 38 33 34 32 29 29 25 19 15 29 22 43 45 60 52 75 75 77 64 60 69 75 71 63 63 52
46 43 16 4 13 15 24 28 27 28 29 29 33 34 31 30 33 32 37 40 38 31 27 26 26 25 19 24 29 21 44 45 48 48 68 86 77 68 58 68 71 65 57 60 53
38 35 37 9 13 25 31 35 32 29 25 29 30 29 28 29 32 30 33 39 42 45 39 33 28 26 25 37 44 39 39 45 46 45 58 73 83 68 63 66 67 67 55 47 47
34 26 11 9 24 40 43 38 30 29 28 30 31 31 34 32 32 34 34 36 38 38 38 42 34 37 32 23 34 39 40 32 35 36 47 58 77 78 62 61 62 61 58 47 50
60 33 16 11 39 41 40 33 30 29 32 33 33 33 33 32 34 30 31 32 37 37 36 37 39 33 34 38 38 38 4 10 37 35 55 54 78 78 69 63 66 63 62 59 51
67 59 38 46 37 40 39 35 32 31 46 30 30 31 28 32 30 33 27 31 33 36 36 40 35 34 29 35 34 24 33 38 35 36 40 55 61 71 65 72 66 65 61 60 66
72 65 44 40 38 36 34 36 34 42 43 34 25 26 28 29 30 28 30 29 30 36 35 36 32 31 32 35 28 30 34 27 19 36 39 46 61 60 68 76 64 63 64 62 57
71 64 46 39 41 36 33 33 41 47 38 38 30 23 22 24 25 27 29 33 35 37 38 36 33 32 31 31 33 39 42 38 30 31 33 38 53 50 50 54 59 62 61 59 55
75 54 45 42 40 36 37 41 44 37 35 35 30 20 26 23 24 22 25 28 31 33 35 36 33 32 33 34 34 41 39 36 27 33 29 31 49 48 38 43 49 57 58 55 50
68 51 46 44 41 39 41 44 41 38 34 35 36 36 32 27 23 21 25 24 29 32 32 33 36 35 35 35 35 36 38 32 26 30 30 33 40 44 40 39 44 49 53 52 48
63 55 46 41 40 42 42 39 35 33 33 33 37 35 36 31 28 25 24 26 26 29 30 31 33 35 37 35 35 32 32 33 31 26 34 35 40 40 45 42 38 42 43 42 39
57 57 43 40 39 46 40 38 36 28 29 33 32 32 30 35 29 28 24 21 25 25 26 26 29 33 34 33 35 35 33 30 30 36 35 33 37 40 37 39 35 35 31 32 32
60 62 44 41 53 44 41 39 42 35 28 29 31 26 29 32 32 29 26 22 29 25 24 27 24 25 28 30 28 28 28 29 27 27 36 38 42 34 36 36 32 27 24 23 23
69 60 48 44 54 47 46 46 41 36 32 31 32 25 29 32 36 28 28 27 26 24 25 26 25 23 25 24 24 23 24 25 25 26 29 34 35 33 34 22 20 20 19 18 19
62 68 52 47 53 56 53 48 41 34 36 36 38 32 31 32 25 36 33 30 26 24 26 25 22 21 21 21 22 22 23 25 27 27 27 30 24 11 32 11 13 21 14 12 15
56 66 60 65 57 49 48 49 47 51 39 35 42 27 28 36 34 32 31 33 29 28 26 24 16 17 19 18 17 18 21 24 28 28 27 26 28 24 16 2 11 1 5 9 11
62 61 59 70 64 63 59 61 56 51 43 46 40 45 23 32 30 39 34 32 37 29 30 31 32 34 21 12 13 19 22 26 32 34 34 30 29 24 19 17 13 16 21 18 5
55 58 66 71 70 68 69 67 62 51 51 47 42 43 44 32 30 36 35 37 34 33 30 36 38 41 36 45 47 8 8 20 19 23 26 32 36 16 15 15 15 11 7 6 3
Wind_Direction
18 36 39 40 42 42 43 41 40 42 43 41 29 14 3 354 349 349 347 340 344 338 332 323 315 298 281 258 253 247 241 239 237 241 237 239 237 239 244 244 242 240 248 246 199
29 50 43 46 47 48 46 45 44 46 46 41 27 16 0 6 358 358 4 351 342 337 334 326 312 298 270 257 251 240 238 240 243 244 240 240 237 237 237 238 240 238 246 226 201
49 60 57 53 54 54 50 46 45 47 47 41 30 23 15 19 10 10 6 356 334 345 343 316 311 313 268 258 248 241 239 239 244 245 246 241 240 239 236 237 240 237 235 225 212
52 77 69 60 59 57 53 48 46 46 46 43 37 40 43 36 8 18 22 12 356 346 338 336 321 304 267 252 252 245 242 240 246 247 244 242 241 237 237 239 244 241 231 218 215
81 84 73 65 63 58 52 49 46 44 43 43 43 44 45 39 27 32 31 34 16 348 336 323 322 286 255 248 254 247 248 245 243 246 248 245 240 237 236 240 245 238 230 219 217
296 69 69 72 65 58 51 48 44 42 39 43 45 45 44 40 40 38 52 56 31 13 5 356 312 273 260 252 246 259 250 251 240 243 247 242 240 240 235 240 240 234 230 222 219
316 97 68 67 65 56 48 43 40 35 39 50 52 51 52 50 44 46 61 67 83 60 28 320 350 244 254 262 267 258 255 254 240 238 243 246 239 236 237 236 235 234 230 227 224
317 283 87 71 62 55 43 37 32 32 47 60 60 57 60 57 58 54 75 80 93 115 81 18 29 311 241 253 253 259 252 247 247 235 240 242 235 238 237 234 233 233 232 229 229
316 295 60 87 65 56 37 30 34 55 57 67 65 63 64 67 67 68 76 74 97 99 102 80 324 326 298 87 350 291 262 248 250 239 237 235 236 239 238 235 233 233 233 231 231
317 301 22 63 61 54 42 49 52 59 66 68 69 61 72 64 71 74 72 83 103 105 100 99 12 341 332 335 290 311 266 261 246 246 235 235 236 241 241 235 235 233 233 234 231
316 307 286 49 58 57 56 57 54 57 64 61 55 60 65 82 80 80 78 77 83 96 93 113 136 102 70 304 300 305 253 263 263 254 238 232 235 239 244 236 235 230 233 236 235
316 303 299 282 63 58 59 53 56 62 61 67 69 70 79 91 78 83 82 70 67 63 68 85 105 100 358 265 243 262 272 258 262 256 242 234 232 241 243 238 236 230 230 231 233
316 303 303 285 59 47 43 52 67 70 69 72 72 74 71 89 85 82 85 71 63 65 71 81 89 108 121 158 149 264 283 284 278 265 248 236 233 236 241 239 236 235 231 234 235
324 306 44 49 44 39 43 56 66 71 64 70 72 77 76 82 81 98 104 87 65 60 71 77 89 113 125 127 142 163 36 14 279 257 235 236 231 233 236 236 233 233 233 234 238
328 321 39 38 44 39 38 49 61 67 40 66 74 75 78 80 79 83 108 89 79 75 74 58 83 99 97 120 110 31 255 153 242 254 249 235 236 233 235 234 232 233 235 236 240
329 328 26 36 43 45 45 40 49 39 36 58 77 81 79 83 81 83 85 94 94 85 90 84 95 93 98 128 111 211 138 83 313 247 250 239 235 238 233 233 233 232 234 236 233
324 346 16 28 27 41 46 43 28 24 39 43 61 77 83 88 90 84 82 79 79 79 77 85 90 83 87 119 126 152 120 105 251 260 264 248 239 248 241 240 237 235 236 238 241
326 360 9 15 22 32 35 27 18 27 34 41 54 73 73 84 94 89 90 84 85 83 80 80 84 96 100 146 136 138 167 114 258 261 273 260 244 243 250 246 245 241 241 242 246
336 353 358 1 9 18 18 12 16 21 29 30 35 44 58 80 89 91 94 95 87 84 86 86 88 102 110 122 128 135 161 195 212 276 283 268 259 252 252 249 248 243 240 242 245
331 338 346 356 1 2 1 4 15 24 26 26 22 33 36 54 68 83 93 95 91 89 89 94 95 98 110 118 119 125 119 164 231 232 273 274 259 254 246 247 251 243 240 241 242
327 326 338 347 352 344 347 351 1 19 25 21 18 18 28 30 52 68 90 105 97 92 97 99 106 104 102 111 110 114 124 129 257 264 258 273 264 257 254 251 253 246 244 239 239
318 312 327 334 324 332 335 342 345 353 9 9 10 17 13 14 22 40 61 98 69 97 109 99 116 120 116 110 124 130 131 132 141 162 247 268 261 273 258 253 252 248 248 244 243
309 308 317 319 311 316 321 325 331 336 345 355 359 8 9 0 358 14 26 44 67 95 105 102 114 110 112 119 120 128 124 124 122 119 155 188 253 276 259 264 259 252 249 247 246
305 300 306 306 305 305 308 313 320 330 330 334 337 348 353 351 357 344 353 8 27 51 59 81 117 127 117 121 121 133 131 130 134 138 132 161 227 342 257 259 255 252 261 254 253
299 294 297 295 296 297 302 303 305 310 317 321 323 331 340 340 344 342 345 342 351 359 18 41 107 123 166 172 156 169 168 148 158 161 157 151 154 111 96 42 264 244 277 267 262
294 294 297 290 291 288 287 292 294 301 304 308 307 314 320 323 332 331 339 339 334 343 342 347 352 353 210 113 147 195 184 178 185 190 196 186 175 107 92 99 108 112 114 111 92
298 295 290 286 286 283 282 283 289 294 298 299 302 305 304 306 316 323 330 330 331 332 333 328 329 329 339 325 282 217 195 169 144 154 167 181 220 101 107 115 123 123 126 122 106